Wind_Speed
16 25 28 30 31 33 35 37 35 33 35 30 30 27 25 22 20 19 18 15 17 15 13 11 8 7 5 3 3 4 7 6 13 8 4 3 9 7 11 9 7 8 10
11 19 27 31 33 35 38 39 38 36 37 35 32 29 26 23 19 21 20 18 18 16 16 12 10 6 6 7 6 7 8 5 9 2 2 2 3 8 13 14 9 8 10
16 18 22 30 30 32 35 39 40 39 39 36 33 27 26 23 21 20 21 21 21 16 18 15 13 10 8 7 8 5 6 6 6 2 4 1 2 2 6 8 10 12 11
15 15 19 26 31 33 33 39 41 40 41 39 36 32 27 23 25 24 21 20 22 19 18 16 15 13 11 9 7 6 5 5 7 5 4 3 3 2 3 2 2 8 15
17 18 20 31 31 29 31 33 38 39 39 42 39 38 31 31 27 25 22 22 21 22 21 19 17 16 15 12 10 9 6 4 3 2 3 7 8 3 2 1 6 6 7
18 15 24 25 25 26 28 29 34 38 41 41 42 41 34 33 29 26 25 23 23 23 24 22 21 20 17 16 14 11 8 6 6 3 1 2 2 2 2 1 2 3 4
11 13 16 20 24 27 29 30 34 35 40 41 42 43 40 38 34 30 27 25 25 27 28 25 23 23 21 19 16 14 12 10 9 7 5 3 3 3 2 2 2 2 1
12 15 17 23 25 29 31 32 33 35 39 41 42 44 43 39 37 33 30 29 29 29 28 28 27 24 21 22 20 17 13 13 11 10 8 6 5 4 4 3 2 1 2
12 17 17 26 27 29 32 34 33 34 37 41 41 41 43 41 39 35 31 29 28 27 27 27 28 27 24 22 22 21 18 14 14 13 11 9 10 8 6 4 3 4 1
10 3 6 12 20 28 30 30 32 35 40 39 37 39 41 41 38 33 30 28 27 26 28 25 26 28 27 25 25 25 22 21 19 17 15 13 11 10 9 8 5 3 5
19 11 3 5 10 10 14 17 22 26 28 31 34 30 36 37 36 35 33 31 31 29 26 25 24 25 29 27 27 27 24 23 21 19 17 16 13 12 11 8 8 8 7
16 13 13 13 10 7 2 7 7 8 9 13 20 33 34 34 36 36 36 33 31 30 32 29 27 26 27 24 27 28 27 26 23 21 16 16 17 15 13 12 10 11 11
18 16 15 16 15 21 28 27 25 21 16 6 11 18 24 33 35 36 36 33 32 32 30 30 30 31 30 29 26 27 29 28 26 24 24 19 16 16 14 13 12 12 13
11 13 12 11 11 8 22 25 12 12 11 15 20 22 21 24 30 34 33 34 32 30 31 30 27 27 26 27 26 25 26 27 26 25 23 22 19 18 17 16 15 12 13
13 10 9 8 12 6 6 20 30 8 13 15 20 15 20 23 30 33 35 32 32 32 32 31 28 27 26 26 25 25 27 28 27 27 26 24 22 22 20 18 17 15 16
8 8 8 10 7 9 6 20 34 22 25 25 29 31 27 28 26 33 37 34 34 33 33 33 32 28 28 27 25 24 24 24 25 25 24 23 22 22 21 20 20 20 20
6 7 6 14 17 13 8 12 20 25 29 29 24 21 24 30 31 28 34 37 35 35 34 32 30 30 28 25 25 24 24 25 25 25 26 26 25 24 23 23 22 22 21
13 12 11 10 11 12 18 15 18 24 25 28 33 23 24 29 25 30 34 36 35 38 37 34 31 31 28 24 23 22 23 25 26 26 27 28 27 25 23 22 23 22 21
16 20 21 23 25 13 9 8 13 19 32 29 29 29 27 31 27 30 32 39 33 34 35 35 34 32 30 25 21 21 22 25 28 28 28 28 28 28 26 26 25 25 26
21 24 30 27 26 25 13 15 18 21 28 31 25 22 27 35 20 26 35 43 36 37 36 35 30 24 16 17 12 9 2 9 17 28 30 29 30 30 28 25 28 28 29
20 25 27 23 25 25 17 19 21 21 25 23 26 24 35 29 18 23 39 42 37 33 26 22 19 23 24 20 20 10 6 23 24 21 26 30 27 27 28 28 29 32 30
20 19 18 22 25 23 22 13 18 21 21 16 11 17 17 12 22 25 28 32 36 27 26 26 28 28 29 22 25 28 23 25 25 21 20 21 19 19 23 27 31 30 28
21 20 20 21 24 23 25 20 25 24 19 16 12 11 4 8 18 18 21 37 8 17 22 27 29 30 27 27 26 26 36 34 31 21 18 19 22 26 25 27 28 24 21
20 20 18 18 21 27 25 27 28 24 22 17 15 13 9 8 6 6 5 5 12 12 12 15 22 22 23 26 23 21 23 29 33 24 20 22 24 21 22 23 24 21 19
19 19 21 20 20 26 29 30 32 28 26 23 15 12 11 12 11 10 13 11 8 2 6 13 12 21 25 27 21 17 16 13 17 20 17 16 14 16 18 19 17 18 18
19 20 21 22 25 26 31 33 28 27 25 22 18 14 10 9 12 13 13 12 6 6 6 7 9 15 20 20 17 12 6 7 10 12 15 15 14 16 17 19 19 18 19
Wind_Direction
205 195 192 189 190 193 198 199 197 203 197 199 196 197 199 200 206 214 209 202 208 220 198 188 184 200 216 228 183 169 169 152 165 143 115 118 203 245 224 240 255 236 237
185 188 184 186 188 188 197 200 202 202 200 198 200 202 202 203 211 204 211 214 213 204 201 195 181 173 200 192 185 170 157 129 170 140 121 24 241 243 233 242 243 229 233
194 191 184 189 189 193 192 198 202 204 205 203 202 203 207 206 202 207 211 220 215 215 210 208 195 185 191 196 196 181 157 146 131 110 176 119 229 285 211 233 233 240 252
199 191 188 189 194 194 193 200 203 204 206 206 206 204 200 202 210 213 214 216 219 216 213 216 215 206 203 208 199 195 179 155 150 177 89 118 145 148 350 336 319 259 256
195 191 195 197 195 193 191 197 203 203 205 208 210 210 213 214 213 214 217 219 222 225 220 215 210 209 207 206 205 199 185 160 165 115 118 100 86 100 127 307 341 35 356
205 195 199 195 194 195 194 193 201 204 207 211 212 215 215 219 215 217 220 222 223 225 220 221 221 221 218 217 216 213 217 241 228 197 190 101 143 128 102 152 295 276 19
221 196 189 190 191 192 194 194 200 202 207 212 211 216 218 223 221 223 223 222 223 225 227 227 226 223 226 227 227 229 225 233 230 223 207 203 208 191 158 158 226 286 309
197 206 202 190 189 193 193 195 199 203 207 211 214 217 221 224 228 231 230 229 230 231 235 235 232 232 230 231 228 232 230 224 219 219 230 226 234 214 195 199 158 352 306
256 210 194 195 191 193 198 198 199 204 208 213 215 217 220 223 226 232 234 235 238 242 244 241 238 239 235 231 231 231 226 226 230 238 238 250 229 230 214 212 183 149 214
341 198 216 211 202 197 200 200 203 203 209 213 214 218 221 228 231 236 238 238 239 244 249 244 240 243 240 235 233 234 232 229 234 235 239 243 228 230 219 226 230 223 179
8 358 59 144 197 203 214 219 213 205 209 210 215 215 225 229 232 237 240 241 239 239 245 250 249 249 246 241 233 232 235 230 232 231 236 241 244 230 227 242 246 229 226
5 3 13 31 75 101 159 221 244 259 251 241 229 220 227 232 235 238 241 244 243 243 244 243 246 245 247 249 244 232 233 234 233 235 235 236 230 237 249 253 246 235 228
6 358 13 28 40 57 53 68 69 60 54 353 262 257 246 229 232 241 243 242 243 244 246 245 246 244 244 248 250 243 247 234 236 237 236 239 237 244 242 242 246 244 236
9 3 7 9 8 50 47 359 30 44 31 18 4 355 325 273 252 241 240 245 242 242 238 242 245 243 243 241 244 243 238 236 240 239 243 241 244 247 249 251 250 249 248
0 10 4 353 8 342 74 285 282 317 328 349 330 318 321 324 277 249 244 240 241 239 238 237 241 241 240 240 243 241 237 238 240 242 245 244 249 250 253 254 255 255 257
347 344 1 337 9 57 221 233 252 291 309 311 308 299 299 307 300 262 254 238 238 239 237 237 236 239 238 242 246 249 241 243 242 246 247 248 255 254 252 256 261 266 267
312 316 333 347 343 355 348 329 335 326 325 309 302 290 296 300 300 279 251 235 231 235 234 234 234 237 236 241 239 241 245 248 247 250 254 257 256 259 261 262 265 262 262
327 324 326 300 303 304 320 328 327 333 322 315 306 287 288 295 298 279 248 231 224 229 229 231 230 232 236 240 238 241 247 252 254 257 260 260 260 259 261 266 263 262 254
314 317 323 324 324 290 264 279 292 304 302 311 315 322 317 315 294 258 251 231 216 221 225 231 229 228 229 230 233 232 239 249 254 262 264 261 265 267 265 263 265 261 262
323 325 330 340 337 330 282 248 261 287 287 301 317 320 342 353 275 246 242 235 219 217 219 223 225 217 199 208 183 193 226 316 294 278 266 262 263 266 271 266 257 255 259
313 320 323 325 326 334 328 296 285 270 285 283 301 335 358 360 11 315 251 233 228 214 205 193 187 182 176 162 161 163 301 295 286 259 270 268 261 263 262 259 259 258 271
313 310 309 313 320 325 333 322 302 316 297 315 314 338 346 341 359 283 329 322 241 207 193 171 161 172 169 171 185 187 220 231 252 256 271 277 280 278 277 261 255 258 260
307 307 304 310 316 320 322 319 320 333 316 323 353 16 35 48 302 331 359 281 180 186 183 159 156 166 173 182 203 212 209 227 232 246 277 281 283 285 281 275 255 246 249
305 313 315 313 313 317 316 316 315 316 323 312 331 0 3 17 23 311 290 332 136 211 189 163 161 185 196 197 200 227 244 241 244 245 263 278 280 274 263 259 249 246 237
304 312 309 301 299 309 308 309 312 316 314 314 304 325 354 349 349 349 347 348 353 321 211 205 185 194 215 227 256 248 240 242 244 261 265 255 245 240 244 239 243 244 239
305 302 302 307 305 304 302 302 306 310 313 311 299 305 328 339 341 346 343 1 312 288 307 281 257 240 251 257 265 271 263 252 249 234 235 232 226 236 240 250 249 248 250
Height
760 767 772 778 783 790 794 797 801 805 811 815 818 822 823 825 828 829 831 832 833 835 837 837 838 838 837 837 838 840 841 839 840 841 841 839 839 838 838 840 840 840 840
759 762 766 772 776 781 787 793 797 802 807 811 815 819 821 822 825 827 830 830 832 834 835 836 837 838 837 836 836 838 838 838 838 838 840 842 840 838 838 839 839 838 839
752 754 760 765 772 777 781 787 793 798 803 808 813 816 820 822 823 825 827 828 830 832 834 835 835 837 837 836 835 835 835 836 837 837 838 841 842 838 836 836 837 836 836
745 751 757 761 765 770 778 784 789 794 799 804 808 812 813 817 820 822 825 826 828 830 831 832 833 834 835 835 835 834 835 835 836 838 836 833 834 836 837 833 833 834 834
736 742 748 752 759 768 774 781 786 790 795 798 803 807 810 813 816 820 823 824 825 827 828 829 831 832 833 834 835 834 834 834 834 834 834 833 833 834 835 836 833 832 831
731 737 745 752 758 765 771 777 782 786 790 794 798 801 805 809 813 816 818 820 822 823 825 827 828 829 830 831 833 834 834 833 834 834 834 833 833 833 834 836 834 834 832
735 736 740 746 753 759 765 771 775 781 784 788 792 796 800 804 807 811 814 816 818 818 820 822 824 826 827 829 830 831 832 832 832 833 832 833 832 832 832 833 834 834 832
730 734 738 742 747 753 758 764 768 773 779 783 786 790 795 799 803 807 809 812 813 815 817 819 821 823 824 825 827 828 829 830 831 831 831 831 831 831 830 831 832 834 833
732 728 730 736 742 748 752 757 762 768 773 777 781 785 789 792 796 800 805 808 811 814 816 818 819 820 821 822 823 825 826 827 828 829 829 829 829 830 830 831 831 831 836
730 734 739 744 746 744 749 755 759 763 766 773 779 782 786 791 795 799 803 806 808 810 812 813 817 818 818 819 820 821 823 825 826 827 827 827 827 828 829 829 829 829 830
754 746 744 746 750 755 759 764 765 765 768 772 776 782 784 787 790 793 797 800 801 802 805 808 811 814 815 814 815 816 819 820 823 824 825 825 826 826 826 827 827 827 828
768 760 754 751 753 755 762 766 772 777 779 782 783 777 780 784 786 787 789 792 795 798 799 802 804 806 808 810 810 812 814 817 819 821 822 822 824 824 824 825 825 825 825
772 769 767 767 766 766 769 770 771 777 776 779 781 785 786 776 776 782 782 784 787 789 793 796 798 800 800 803 806 807 810 812 815 817 818 819 820 820 820 820 821 821 822
782 777 775 773 770 765 763 778 778 774 775 773 775 781 784 785 783 774 774 781 782 784 784 788 791 793 796 797 799 802 805 808 810 813 815 815 816 816 817 817 816 817 818
783 782 780 777 769 765 752 766 795 772 772 760 764 775 779 781 778 775 770 768 775 778 781 783 785 787 790 793 796 797 801 805 807 809 811 812 813 814 814 814 813 813 813
790 786 784 779 776 772 771 774 782 772 759 749 751 761 768 766 770 770 768 762 765 772 774 776 777 782 785 788 791 795 799 802 803 805 807 808 810 810 810 811 811 811 810
791 788 786 782 772 765 767 770 759 748 746 745 753 758 757 755 758 761 763 759 756 764 766 770 773 776 780 783 785 788 792 796 797 799 801 803 805 806 807 807 807 806 806
791 787 784 783 782 773 767 758 756 752 753 750 748 751 748 748 741 752 750 749 749 755 757 762 765 770 773 777 779 782 786 790 792 794 796 798 798 799 800 802 802 802 801
792 785 780 778 774 772 767 764 761 754 752 743 740 740 735 726 723 738 739 740 741 749 750 754 757 763 767 770 774 776 779 782 784 787 788 790 791 793 795 796 796 797 797
793 786 778 774 771 768 765 764 759 754 750 742 744 738 722 716 719 720 727 734 731 737 740 744 751 758 761 763 767 773 775 778 779 781 781 783 784 786 789 792 791 790 790
791 786 780 775 769 764 759 755 753 749 743 739 736 721 697 708 722 720 724 722 723 724 731 738 746 751 752 756 760 765 764 765 765 766 772 774 776 777 780 782 785 784 786
787 784 780 775 770 764 759 757 751 744 741 736 730 719 716 715 723 734 695 713 719 714 723 731 739 744 743 749 751 748 753 752 749 757 765 767 769 770 772 774 776 778 778
783 781 775 771 768 764 760 757 749 742 739 738 733 729 728 721 730 708 710 697 696 713 712 717 729 736 738 738 742 740 737 743 743 752 757 759 761 762 764 766 770 771 769
778 776 772 768 765 759 755 751 746 742 738 734 729 729 730 729 727 721 726 715 710 709 712 720 725 730 735 735 740 745 747 745 745 747 750 753 754 756 758 760 762 764 763
775 771 767 762 760 755 748 747 739 735 730 727 727 725 723 722 722 719 715 707 705 715 721 720 717 727 737 737 737 738 739 740 744 747 747 749 748 751 755 755 756 759 759
774 769 763 756 752 750 740 735 735 732 728 725 722 722 722 722 718 718 716 714 717 717 713 715 719 726 732 731 733 733 729 734 740 743 745 743 743 747 748 751 751 753 754